[[{"header":{"parameterUnit":"m.s-1","parameterCategory":1,"la1":30.2991,"la2":30.254,"lo1":-89.0895,"lo2":-89.0444,"dy":0.0017,"dx":0.0017,"nx":28,"ny":28,"refTime":"2023-11-05T09:00:00:Z","depth":0,"parameterNumber":2,"parameterNumberName":"U-component_of_WINDS"},"data":[0,0,0,0,0,0,0,0,0,0,0,0,0,0,0,0,0,0,0,0,0,0,0,0,0,0,0,0,0,0,0,0,0,0,0,0,0,0,0,0,0,0,0,0,0,0,0,0,0,0,0,0,0,0,0,0,0,0,1.063,1.063,0,1.0707,1.0708,1.0709,1.0717,1.0717,1.0716,1.0715,1.0794,1.0797,1.08,0,0,0,0,0,0,0,0,0,0,0,0,0,1.0487,1.0489,1.0629,1.063,1.0631,1.0707,1.0708,1.0709,1.0718,1.0717,1.0716,1.0715,1.0793,1.0797,1.08,0,0,0,0,0,0,0,0,0,0,0,0,0,1.0555,1.049,1.0629,1.0645,1.0647,1.0707,1.0708,1.071,1.0718,1.0717,1.0715,1.0714,1.0792,1.0796,1.0801,1.0851,0,0,1.0814,1.0815,0,0,0,0,0,0,0,0,1.0551,1.056,1.0642,1.0644,1.0646,1.0702,1.0687,1.0757,1.0718,1.0691,1.0715,1.0714,1.0764,1.0771,1.0788,1.0854,1.0858,1.0814,1.0817,1.0818,1.082,0,0,0,0,0,0,0,1.0546,1.0557,1.066,1.0643,1.0646,1.0647,1.0656,1.07,1.0733,1.0693,1.0694,1.0703,1.0765,1.0784,1.079,1.0859,1.0814,1.0818,1.082,1.0822,1.0968,1.0969,0,0,0,0,0,0,1.0539,1.0553,1.0658,1.0663,1.0595,1.0651,1.066,1.0685,1.0733,1.0739,1.0704,1.0703,1.0777,1.0785,1.0793,1.0853,1.0818,1.0822,1.0825,1.0967,1.0968,1.097,0,0,0,0,0,0,1.0536,1.0548,1.0655,1.0608,1.0622,1.0655,1.0682,1.0687,1.0706,1.0741,1.0747,1.0717,1.0777,1.0787,1.0836,1.0856,1.0824,1.0828,1.0965,1.0967,1.0969,1.0974,0,0,0,0,0,0,1.0532,1.0547,1.0567,1.0608,1.0624,1.0697,1.0684,1.069,1.0713,1.0713,1.0755,1.076,1.0776,1.0829,1.084,1.0861,1.0832,1.0964,1.0966,1.0968,1.0972,1.0976,1.0979,0,0,0,0,0,1.0527,1.0565,1.0568,1.058,1.065,1.0698,1.0707,1.0725,1.0715,1.0734,1.0757,1.0759,1.0852,1.0834,1.0846,1.0869,1.0962,1.0965,1.0968,1.0971,1.0976,1.0979,0,0,0,0,0,0,1.0525,1.0571,1.0574,1.0628,1.0659,1.0699,1.0725,1.0729,1.0764,1.0762,1.0782,1.0792,1.0839,1.086,1.0839,1.0919,1.0906,1.0912,1.0904,1.0909,1.0912,1.0906,1.0835,0,0,0,0,0,1.0531,1.0567,1.0605,1.0649,1.0664,1.0692,1.0713,1.0724,1.0757,1.077,1.0797,1.0828,1.0864,1.0888,1.0923,1.0976,1.0984,1.0997,1.1001,1.1003,1.1008,1.1035,1.1041,1.098,1.098,1.098,0,0,1.0544,1.0573,1.0595,1.0649,1.0674,1.071,1.0703,1.0741,1.0768,1.0776,1.0824,1.0844,1.0881,1.0931,1.0955,1.0949,1.1026,1.1007,1.1009,1.1012,1.1039,1.1044,1.105,1.0982,1.0981,1.0981,0,0,1.0585,1.0611,1.065,1.0675,1.0713,1.0731,1.0741,1.078,1.0794,1.0842,1.0849,1.088,1.0943,1.0968,1.0989,1.1039,1.1041,1.105,1.1067,1.1094,1.1099,1.1103,1.1119,1.1125,1.1054,1.1054,1.1054,0,1.0595,1.065,1.0669,1.0707,1.073,1.0739,1.0777,1.0801,1.0849,1.0865,1.0858,1.0936,1.0961,1.1017,1.1029,1.1046,1.1056,1.1044,1.1097,1.1101,1.1106,1.1121,1.1127,1.1055,1.1055,1.1055,1.1054,0,1.066,1.0698,1.0724,1.077,1.0796,1.0834,1.0858,1.0882,1.0891,1.0909,1.0957,1.0988,1.1029,1.1044,1.1053,1.11,1.1095,1.1093,1.108,1.1112,1.1126,1.1133,1.1056,1.1055,1.1055,1.1055,0,0,1.0702,1.0757,1.0766,1.0786,1.0829,1.0858,1.0897,1.0937,1.0956,1.0989,1.1021,1.1073,1.107,1.1094,1.1106,1.113,1.1165,1.1124,1.1125,1.1129,1.1217,1.1218,1.1225,1.1167,1.1169,1.117,1.1213,0,1.0746,1.0814,1.0832,1.089,1.0924,1.0933,1.0966,1.0995,1.1013,1.1045,1.1065,1.1101,1.1095,1.111,1.1134,1.1155,1.1182,1.1153,1.1196,1.1197,1.1185,1.1233,1.1234,1.1274,1.122,1.1221,1.1221,0,1.0807,1.084,1.0901,1.0938,1.0954,1.0983,1.102,1.1051,1.1084,1.1095,1.1121,1.1131,1.117,1.1156,1.121,1.1189,1.1208,1.1221,1.1223,1.1227,1.121,1.1236,1.1287,1.1292,1.1231,1.123,1.123,0,1.0829,1.089,1.0933,1.0951,1.0996,1.1016,1.1035,1.1068,1.109,1.1123,1.1137,1.1175,1.1194,1.1223,1.1241,1.123,1.1293,1.1281,1.1302,1.1302,1.1314,1.1313,1.1368,1.1329,1.1329,1.1329,1.1329,0,1.0876,1.0912,1.0944,1.0971,1.1011,1.1031,1.1071,1.1091,1.1119,1.1149,1.116,1.1188,1.1212,1.1243,1.1258,1.1299,1.1309,1.1318,1.1322,1.1317,1.1315,1.1328,1.1325,1.133,1.133,1.133,1.1329,0,1.0907,1.093,1.0978,1.1016,1.1027,1.1055,1.1087,1.1113,1.1132,1.117,1.118,1.1209,1.1246,1.1268,1.1315,1.1325,1.137,1.1373,1.1359,1.136,1.1379,1.1377,1.1443,1.1452,1.1409,1.1409,1.1409,0,1.0935,1.0963,1.1004,1.1025,1.1045,1.1079,1.1102,1.1122,1.1145,1.1185,1.1206,1.1244,1.1275,1.1333,1.1358,1.1394,1.1397,1.1418,1.1402,1.1396,1.1395,1.1393,1.1395,1.142,1.142,1.142,1.1421,0,1.0981,1.099,1.1023,1.106,1.1086,1.1116,1.1146,1.1162,1.1188,1.1213,1.1251,1.1275,1.1323,1.136,1.1397,1.1417,1.1423,1.1426,1.1432,1.1427,1.1416,1.1421,1.1364,1.1424,1.1423,1.1423,1.1423,1.1423,1.101,1.1035,1.1067,1.1103,1.1127,1.1155,1.118,1.1202,1.1234,1.1274,1.1284,1.1324,1.1355,1.1406,1.1427,1.1458,1.1454,1.1464,1.1466,1.1468,1.1468,1.1413,1.1465,1.1465,1.1465,1.1465,1.1465,0,1.1055,1.1076,1.1109,1.115,1.1178,1.1181,1.1214,1.1237,1.1271,1.13,1.133,1.1373,1.1409,1.1437,1.1473,1.1492,1.1495,1.1501,1.1499,1.1503,1.147,1.146,1.1497,1.1497,1.1497,1.1497,1.1497,1.1497,1.1082,1.1124,1.1137,1.119,1.1212,1.125,1.1268,1.1293,1.1316,1.1363,1.1393,1.1411,1.1439,1.1477,1.151,1.1517,1.1529,1.1534,1.1541,1.1509,1.1505,1.1502,1.1493,1.1537,1.1537,1.1572,1.1572,1.1572]},{"header":{"parameterUnit":"m.s-1","parameterCategory":1,"la1":30.2991,"la2":30.254,"lo1":-89.0895,"lo2":-89.0444,"dy":0.0017,"dx":0.0017,"nx":28,"ny":28,"refTime":"2023-11-05T09:00:00:Z","depth":0,"parameterNumber":3,"parameterNumberName":"V-component_of_WINDS"},"data":[0,0,0,0,0,0,0,0,0,0,0,0,0,0,0,0,0,0,0,0,0,0,0,0,0,0,0,0,0,0,0,0,0,0,0,0,0,0,0,0,0,0,0,0,0,0,0,0,0,0,0,0,0,0,0,0,0,0,1.1358,1.1357,0,1.1273,1.1272,1.1271,1.121,1.121,1.1209,1.1209,1.1116,1.1114,1.1112,0,0,0,0,0,0,0,0,0,0,0,0,0,1.1462,1.1461,1.1358,1.1357,1.1356,1.1273,1.1272,1.127,1.121,1.121,1.1209,1.1209,1.1117,1.1114,1.1112,0,0,0,0,0,0,0,0,0,0,0,0,0,1.1401,1.146,1.1358,1.1316,1.1311,1.1273,1.1272,1.127,1.1211,1.121,1.1209,1.1208,1.1118,1.1115,1.1112,1.1107,0,0,1.1102,1.1101,0,0,0,0,0,0,0,0,1.1405,1.1397,1.1323,1.1319,1.1314,1.1252,1.1274,1.1215,1.1211,1.1249,1.1209,1.1208,1.1161,1.1155,1.114,1.1102,1.1098,1.1102,1.11,1.1099,1.1098,0,0,0,0,0,0,0,1.1409,1.14,1.1324,1.1322,1.1316,1.1299,1.129,1.1263,1.121,1.1245,1.1241,1.1232,1.1159,1.1143,1.1137,1.1097,1.1102,1.1099,1.1098,1.1096,1.1049,1.1049,0,0,0,0,0,0,1.1421,1.1404,1.1327,1.1321,1.1358,1.1298,1.1287,1.1272,1.121,1.12,1.1232,1.1229,1.1149,1.1141,1.1134,1.1123,1.1099,1.1096,1.1094,1.1048,1.1049,1.105,0,0,0,0,0,0,1.1423,1.1414,1.133,1.1362,1.135,1.1297,1.128,1.1271,1.1255,1.12,1.119,1.1227,1.1148,1.1138,1.1114,1.1119,1.1095,1.1092,1.1048,1.1048,1.1049,1.1103,0,0,0,0,0,0,1.1426,1.1416,1.1415,1.1362,1.1348,1.1314,1.1281,1.127,1.1251,1.1246,1.1192,1.1183,1.1147,1.1119,1.1111,1.1115,1.1089,1.1047,1.1048,1.1049,1.11,1.1105,1.111,0,0,0,0,0,1.143,1.1432,1.1415,1.1406,1.1347,1.1314,1.1306,1.1266,1.1252,1.1249,1.1214,1.1184,1.112,1.1117,1.1107,1.111,1.1046,1.1048,1.1049,1.1098,1.1104,1.1109,0,0,0,0,0,0,1.1485,1.1425,1.1405,1.1391,1.1358,1.1304,1.13,1.1274,1.1244,1.124,1.119,1.1178,1.1159,1.1132,1.1129,1.1101,1.1079,1.1079,1.112,1.1125,1.113,1.1137,1.1087,0,0,0,0,0,1.1496,1.1477,1.1424,1.1416,1.1401,1.1354,1.1338,1.131,1.1274,1.1259,1.1222,1.1186,1.1157,1.114,1.111,1.1096,1.1082,1.1093,1.1097,1.1101,1.1102,1.109,1.1094,1.1054,1.1054,1.1054,0,0,1.1518,1.1482,1.1473,1.1426,1.1398,1.1377,1.1343,1.1322,1.1306,1.1255,1.1231,1.1202,1.1158,1.1139,1.1128,1.1115,1.1109,1.1103,1.1107,1.1105,1.1092,1.1096,1.1099,1.1055,1.1054,1.1054,0,0,1.1546,1.1518,1.1508,1.1481,1.1439,1.1407,1.1404,1.1354,1.1334,1.1308,1.127,1.1248,1.12,1.1171,1.1149,1.1165,1.1136,1.1157,1.1181,1.1171,1.1174,1.1176,1.1181,1.1184,1.1157,1.1157,1.1157,0,1.1578,1.1547,1.1506,1.1488,1.1468,1.1423,1.1411,1.1385,1.1335,1.1322,1.1309,1.1247,1.1215,1.1187,1.1191,1.1175,1.1169,1.1163,1.1177,1.1179,1.1181,1.1185,1.1187,1.116,1.1159,1.1159,1.1159,0,1.1588,1.1567,1.1563,1.1518,1.1497,1.1482,1.1437,1.142,1.1393,1.1362,1.1336,1.1295,1.1256,1.1247,1.122,1.1215,1.1208,1.1187,1.1164,1.1188,1.1191,1.1192,1.1164,1.1163,1.1162,1.1161,0,0,1.165,1.1581,1.1581,1.1559,1.1509,1.1491,1.1472,1.1436,1.1423,1.1389,1.1371,1.1331,1.1311,1.1287,1.1256,1.1246,1.126,1.1225,1.1224,1.1233,1.125,1.1267,1.127,1.1241,1.1241,1.1241,1.1254,0,1.1671,1.1639,1.16,1.158,1.1559,1.1515,1.1499,1.1465,1.1435,1.1411,1.1376,1.1349,1.1325,1.1309,1.1298,1.1261,1.1263,1.126,1.1222,1.1222,1.1235,1.1271,1.1289,1.1303,1.1255,1.1255,1.1255,0,1.1691,1.1662,1.164,1.1591,1.158,1.1567,1.153,1.1508,1.1468,1.1446,1.1419,1.1386,1.1362,1.1342,1.1307,1.1306,1.1288,1.1267,1.1266,1.1261,1.124,1.1267,1.1306,1.1309,1.1256,1.1256,1.1256,0,1.1738,1.1692,1.1674,1.1656,1.1598,1.159,1.1564,1.1524,1.1504,1.147,1.1456,1.142,1.14,1.1372,1.1328,1.1318,1.1298,1.1274,1.1278,1.1279,1.1276,1.1277,1.1314,1.1265,1.1265,1.1265,1.1265,0,1.1766,1.1754,1.1694,1.1682,1.1667,1.1622,1.1607,1.1578,1.1542,1.1522,1.148,1.1462,1.1406,1.1381,1.1346,1.1322,1.1313,1.1294,1.1285,1.1298,1.13,1.1285,1.1283,1.1265,1.1265,1.1265,1.1265,0,1.1816,1.1776,1.1752,1.1699,1.1685,1.1676,1.163,1.1615,1.1582,1.1558,1.1549,1.1497,1.1464,1.1418,1.1371,1.1348,1.1329,1.1314,1.1343,1.1338,1.1344,1.1344,1.1372,1.1373,1.1325,1.1325,1.1326,0,1.1837,1.1827,1.1773,1.1758,1.1735,1.171,1.169,1.1644,1.1624,1.1576,1.1567,1.1532,1.1502,1.1451,1.1407,1.1371,1.1355,1.1367,1.1349,1.1362,1.1355,1.1356,1.1354,1.1372,1.1373,1.1373,1.1374,0,1.1877,1.1857,1.1831,1.1797,1.1774,1.1745,1.1713,1.1702,1.1649,1.1628,1.1596,1.1572,1.1524,1.1489,1.1446,1.1417,1.1386,1.138,1.1379,1.1392,1.1409,1.1399,1.1355,1.138,1.1379,1.1379,1.1378,1.1378,1.1913,1.1902,1.1862,1.1833,1.1805,1.1776,1.176,1.1725,1.1698,1.1657,1.163,1.1599,1.1556,1.1496,1.1468,1.1441,1.1428,1.1427,1.1426,1.1427,1.1431,1.1413,1.1433,1.1433,1.1433,1.1432,1.1432,0,1.1951,1.1923,1.1897,1.1855,1.1832,1.1806,1.1769,1.1751,1.1724,1.1688,1.1659,1.162,1.1585,1.1539,1.15,1.1487,1.1472,1.1478,1.1479,1.1473,1.1445,1.145,1.1492,1.1492,1.1492,1.1492,1.1492,1.1492,1.1968,1.1948,1.1923,1.1887,1.1858,1.1829,1.181,1.1782,1.1753,1.1712,1.1684,1.1654,1.1613,1.1571,1.1537,1.1524,1.1511,1.1523,1.1505,1.148,1.1475,1.147,1.1474,1.152,1.152,1.1535,1.1535,1.1535]}]]